• MPC Preparation (Info)

  • MPEC 2013-R99 : 2013 RM73

    The following Minor Planet Electronic Circular may be linked-to from your own Web pages, but must not otherwise be redistributed electronically.

    A form allowing access to any MPEC is at the bottom of this page.


    Read MPEC 2013-R98 Read MPEC 2013-S01


    M.P.E.C. 2013-R99                                Issued 2013 Sept. 15, 21:53 UT
    
         The Minor Planet Electronic Circulars contain information on unusual
             minor planets and routine data on comets.  They are published
       on behalf of Commission 20 of the International Astronomical Union by the
              Minor Planet Center, Smithsonian Astrophysical Observatory,
                              Cambridge, MA 02138, U.S.A.
    
                 Prepared using the Tamkin Foundation Computer Network
    
                                  MPC@CFA.HARVARD.EDU
                URL https://www.minorplanetcenter.net/    ISSN 1523-6714
    
                                       2013 RM73
    
    Observations:
         K13R73M* C2013 09 13.25453 22 23 00.58 -16 33 41.7          19.6 VqER099703
         K13R73M  C2013 09 13.26123 22 23 00.66 -16 32 10.2          19.5 VqER099703
         K13R73M  C2013 09 13.26799 22 23 00.71 -16 30 38.0          18.6 VqER099703
         K13R73M  C2013 09 13.27470 22 23 00.87 -16 29 06.0          19.4 VqER099703
         K13R73M  C2013 09 13.31755 22 23 01.78 -16 19 07.1          18.9 VqER099703
         K13R73M  C2013 09 13.31821 22 23 01.77 -16 18 56.8          18.9 VqER099703
         K13R73M  C2013 09 13.31887 22 23 01.79 -16 18 47.3          19.2 VqER099703
         K13R73M  C2013 09 13.31954 22 23 01.90 -16 18 38.0          19.2 VqER099703
         K13R73M  C2013 09 13.35293 22 23 02.98 -16 10 36.8          18.8 VqER099703
         K13R73M  C2013 09 13.35370 22 23 03.03 -16 10 26.7          19.3 VqER099703
         K13R73M  C2013 09 13.35449 22 23 02.97 -16 10 12.7          19.6 VqER099703
         K13R73M  C2013 09 13.35528 22 23 03.06 -16 10 02.2          19.4 VqER099703
         K13R73M KC2013 09 13.85705 22 25 01.46 -13 54 24.7          18.8 VqER099595
         K13R73M KC2013 09 13.86345 22 25 02.04 -13 52 26.0          19.0 VqER099595
         K13R73M KC2013 09 13.86985 22 25 02.60 -13 50 26.2          18.9 VqER099595
         K13R73M KC2013 09 13.91124822 25 02.90 -13 28 02.8          19.3 VqER099K91
         K13R73M KC2013 09 13.91402122 25 03.05 -13 27 08.6          19.1 VqER099K91
         K13R73M KC2013 09 13.91682222 25 03.21 -13 26 13.8          19.3 VqER099K91
         K13R73M KC2013 09 13.91962022 25 03.37 -13 25 18.8          19.0 VqER099K91
         K13R73M KC2013 09 13.92239022 25 03.53 -13 24 24.1          19.1 VqER099K91
         K13R73M KC2013 09 13.92517022 25 03.68 -13 23 29.2          18.9 VqER099K91
         K13R73M KC2013 09 13.92796022 25 03.85 -13 22 34.2          19.2 VqER099K91
         K13R73M KC2013 09 13.92963622 25 03.95 -13 22 00.9          19.1 VqER099K91
         K13R73M KC2013 09 13.93745 22 25 10.19 -13 28 50.2                vER099587
         K13R73M  C2013 09 13.95294 22 25 11.53 -13 23 41.4          18.4 RvER099587
         K13R73M KC2013 09 14.19406 22 26 04.56 -11 47 13.8          18.8 VuER099I48
         K13R73M KC2013 09 14.19819 22 26 04.92 -11 45 36.8          18.8 VuER099I48
         K13R73M KC2013 09 14.21043522 26 17.37 -11 51 14.5          18.9 VqER099H21
         K13R73M KC2013 09 14.21534522 26 17.86 -11 49 20.4          18.8 VqER099H21
         K13R73M KC2013 09 14.22043722 26 18.37 -11 47 21.4          18.8 VqER099H21
         K13R73M KC2013 09 14.22588322 26 18.97 -11 45 12.9          18.6 VqER099H21
         K13R73M KC2013 09 14.27453 22 26 27.63 -11 25 49.0          18.4 RqER099H36
         K13R73M KC2013 09 14.28260 22 26 28.56 -11 22 32.2          18.4 RqER099H36
         K13R73M KC2013 09 14.28531 22 26 28.89 -11 21 26.0          18.5 RqER099H36
         K13R73M KC2013 09 14.29125 22 26 29.58 -11 19 00.3          18.5 RqER099H36
         K13R73M KC2013 09 14.86771 22 30 13.89 -06 33 10.1                qER099J95
         K13R73M KC2013 09 14.87736 22 30 16.55 -06 27 19.2                qER099J95
         K13R73M KC2013 09 14.88111 22 30 17.59 -06 25 00.6          18.1 RqER099J95
         K13R73M KC2013 09 15.06782122 31 55.37 -04 19 51.1          18.6 VuER099H21
         K13R73M KC2013 09 15.06974022 31 56.01 -04 18 29.5          18.4 VuER099H21
         K13R73M KC2013 09 15.07374622 31 57.36 -04 15 39.2          18.6 VuER099H21
         K13R73M KC2013 09 15.07591722 31 58.08 -04 14 05.9          18.4 VuER099H21
         K13R73M KC2013 09 15.14187 22 32 09.50 -03 25 58.6                uER099932
         K13R73M KC2013 09 15.16425 22 32 15.99 -03 08 53.6          18.2 VuER099932
         K13R73M KC2013 09 15.16543 22 32 16.33 -03 07 58.8          18.0 VuER099932
         K13R73M KC2013 09 15.17016 22 32 17.75 -03 04 19.6                uER099932
         K13R73M !C2013 09 15.17161 22 32 46.77 -03 01 56.0                tER099673
         K13R73M !C2013 09 15.17264 22 32 47.09 -03 01 08.7                tER099673
         K13R73M KC2013 09 15.87507822 41 20.18 +09 33 04.6          17.7 VuER099I93
         K13R73M KC2013 09 15.88027122 41 24.21 +09 40 45.0          17.5 VuER099I93
         K13R73M KC2013 09 15.88650022 41 29.03 +09 50 00.6          17.8 VuER099I93
         K13R73M KC2013 09 15.89095222 41 32.50 +09 56 39.4          17.2 VuER099I93
    
    Observer details:
    587 Sormano.  Observers F. Manca, A. Testa.  Measurer F. Manca.  0.5-m f/6.8
        reflector + CCD.
    595 Farra d'Isonzo.  Observers E. Pettarin, F. Piani.  Measurer E. Pettarin.
        0.61-m f/4.0 reflector + CCD.
    673 Table Mountain Observatory, Wrightwood.  Observer J. Pittichova.  Measurer
        S. Chesley.
    703 Catalina Sky Survey.  Observer A. Boattini.  Measurers A. Boattini,
        E. J. Christensen, A. R. Gibbs, A. D. Grauer, R. E. Hill, J. A. Johnson,
        R. A. Kowalski, S. M. Larson, F. C. Shelly.  0.68-m Schmidt + CCD.
    932 John J. McCarthy Obs., New Milford.  Observers M. Polansky, M. Robson.
        0.4-m f/5 Schmidt-Cassegrain + CCD.
    H21 Astronomical Research Observatory, Westfield.  Observer R. Holmes.
        Measurers T. Vorobjov, L. Buzzi, S. Foglia, T. Linder.  0.61-m f/4.0
        astrograph + CCD, 0.61-m f/4.5 astrograph + CCD.
    H36 Sandlot Observatory, Scranton.  Observer G. Hug.  0.56-m reflector + CCD.
    I48 Observatorio El Catalejo, Santa Rosa.  Observer J. Spagnotto.  0.20-m f/5
        reflector + CCD.
    I93 St Pardon de Conques.  Observer F. Losse.  0.40-m f/3.7 reflector + CCD.
    J95 Great Shefford.  Observer P. Birtwhistle.  0.40-m f/6.0 Schmidt-Cassegrain
        + CCD.
    K91 Sutherland-LCOGT A.  Observers E. J. Christensen, S. M. Larson, T. Lister.
        Measurer T. Lister.  1.0-m f/8 Ritchey-Chretien + CCD.
    
    Orbital elements:
    2013 RM73                                                Earth MOID = 0.0053 AU
    Epoch 2013 Nov. 4.0 TT = JDT 2456600.5                  MPC
    M   5.93142              (2000.0)            P               Q
    n   0.41069140     Peri.   45.83160     +0.79661878     -0.60432422
    a   1.7924992      Node   351.31691     +0.52522087     +0.70329405
    e   0.4869162      Incl.    5.24905     +0.29923494     +0.37439246
    P   2.40           H   26.7           G   0.15           U   5
    Residuals in seconds of arc
    130913 703  0.4-  0.2-    130913 K91  0.1+  0.3+    130914 J95  0.2-  1.0-
    130913 703  0.8-  0.3+    130913 K91  0.1+  0.4+    130914 J95  0.0   0.0
    130913 703  1.7-  0.1+    130913 K91  0.0   0.4+    130915 H21  0.5+  0.7-
    130913 703  1.0-  0.0     130913 K91  0.1+  0.2+    130915 H21  0.4+  0.8-
    130913 703  0.5-  0.7-    130913 K91  0.1+  0.3+    130915 H21  0.4+  1.4-
    130913 703  0.9-  0.3+    130913 587  0.7+  2.2-    130915 H21  0.3+  1.0-
    130913 703  0.9-  0.4+    130913 587  0.2+  0.5+    130915 932  0.1+  0.8+
    130913 703  0.4+  0.1+    130914 I48  0.8+  0.4+    130915 932  0.1+  0.7+
    130913 703  0.1-  0.1-    130914 I48  0.1-  0.8+    130915 932  0.1+  0.9+
    130913 703  0.1+  1.2-    130914 H21  0.0   0.2-    130915 932  0.5+  0.7+
    130913 703  1.2-  1.2+    130914 H21  0.0   0.3-    130915 673  0.9+  1.6+
    130913 703  0.4-  0.2+    130914 H21  0.0   0.2-    130915 673  0.4+  1.1+
    130913 595  0.6+  0.9-    130914 H21  0.7+  0.6+    130915 I93  0.6-  0.2+
    130913 595  0.5+  1.2-    130914 H36  0.1-  0.5+    130915 I93  0.5-  0.0
    130913 595  0.3+  0.9-    130914 H36  0.0   0.4+    130915 I93  0.6-  0.0
    130913 K91  0.1+  0.5+    130914 H36  0.2+  0.3+    130915 I93  0.3-  0.2-
    130913 K91  0.0   0.4+    130914 H36  0.0   0.0
    130913 K91  0.1+  0.3+    130914 J95  0.2-  0.1+
    
    Ephemeris:
    2013 RM73                a,e,i = 1.79, 0.49, 5                   q = 0.9197
    Date    TT    R. A. (2000) Decl.     Delta      r     Elong.  Phase     V
    2013 08 16    22 15 58.8 -27 29 55   0.1961  1.2025   164.2    13.3    24.3
    ...
    2013 08 31    22 16 02.6 -27 24 12   0.09925 1.1036   160.7    17.6    22.8
    ...
    2013 09 08    22 17 04.3 -24 56 15   0.05210 1.0559   157.5    21.4    21.4
    ...
    2013 09 14    22 25 25.9 -13 01 22   0.01824 1.0233   161.9    17.7    19.0
    2013 09 15    22 30 56.6 -04 59 43   0.01296 1.0182   164.9    14.9    18.1
    2013 09 16    22 43 11.7 +12 56 30   0.0082791.0132   159.8    20.1    17.3
    ...
    2013 09 22    09 59 02.7 +42 19 02   0.02898 0.9852    49.5   129.2    24.6
    ...
    2013 09 30    10 09 09.5 +34 50 38   0.07445 0.9546    49.2   127.4    26.4
    ...
    2013 10 15    10 20 51.5 +30 43 13   0.1607  0.9223    58.1   113.4    26.9
    
    A. U. Tomatic                (C) Copyright 2013 MPC           M.P.E.C. 2013-R99
    

    Read MPEC 2013-R98 Read MPEC 2013-S01


    MPEC number:

    Enter an MPEC number in one of the following forms:

    • 1997-B01 (the full form)
    • J97B01 (the packed version of the full form)
    • B01 (the abbreviated form)